�������l�o���
Date,Time,MP-1(��Sv/h),MP-2(��Sv/h),MP-3(��Sv/h),MP-4(��Sv/h),MP-5(��Sv/h),MP-6(��Sv/h),MP-7(��Sv/h),����,����(m/s),���J
2019/07/08,00:00,0.180,0.165,0.266,0.252,0.262,0.136,0.089,�k,8.2,�L
2019/07/08,00:10,0.180,0.165,0.266,0.250,0.261,0.135,0.089,�k,8.7,�L
2019/07/08,00:20,0.179,0.165,0.266,0.252,0.262,0.134,0.089,�k,8.4,�L
2019/07/08,00:30,0.179,0.166,0.265,0.250,0.260,0.135,0.089,�k,9.2,�L
2019/07/08,00:40,0.180,0.165,0.268,0.252,0.260,0.134,0.089,�k,9.0,�L
2019/07/08,00:50,0.179,0.166,0.266,0.252,0.261,0.136,0.088,�k,7.9,�L
2019/07/08,01:00,0.180,0.165,0.267,0.254,0.260,0.135,0.089,�k�k��,8.1,�L
2019/07/08,01:10,0.178,0.165,0.266,0.252,0.261,0.135,0.089,�k,10.0,�L
2019/07/08,01:20,0.179,0.165,0.267,0.252,0.260,0.133,0.087,�k�k��,8.8,�L
2019/07/08,01:30,0.178,0.165,0.267,0.252,0.260,0.135,0.088,�k,8.7,�L
2019/07/08,01:40,0.179,0.163,0.266,0.255,0.260,0.134,0.087,�k,8.2,�L
2019/07/08,01:50,0.179,0.164,0.268,0.251,0.261,0.133,0.088,�k,8.1,�L
2019/07/08,02:00,0.179,0.164,0.266,0.252,0.259,0.134,0.087,�k,7.4,�L
2019/07/08,02:10,0.180,0.163,0.268,0.253,0.260,0.133,0.087,�k,8.1,�L
2019/07/08,02:20,0.179,0.164,0.267,0.252,0.259,0.134,0.088,�k,8.1,�L
2019/07/08,02:30,0.180,0.164,0.267,0.252,0.261,0.134,0.088,�k,8.8,�L
2019/07/08,02:40,0.179,0.164,0.266,0.250,0.259,0.133,0.086,�k,8.6,�L
2019/07/08,02:50,0.178,0.163,0.266,0.253,0.260,0.134,0.087,�k,8.1,�L
2019/07/08,03:00,0.178,0.164,0.267,0.250,0.259,0.134,0.087,�k,9.0,�L
2019/07/08,03:10,0.180,0.164,0.267,0.253,0.260,0.134,0.086,�k,7.7,�L
2019/07/08,03:20,0.179,0.163,0.268,0.251,0.258,0.133,0.087,�k,7.3,�L
2019/07/08,03:30,0.178,0.164,0.267,0.253,0.260,0.133,0.087,�k,7.9,�L
2019/07/08,03:40,0.178,0.162,0.269,0.251,0.259,0.134,0.087,�k,9.2,�L
2019/07/08,03:50,0.179,0.164,0.267,0.253,0.259,0.134,0.087,�k,8.4,�L
2019/07/08,04:00,0.180,0.165,0.269,0.252,0.259,0.133,0.087,�k,7.4,�L
2019/07/08,04:10,0.179,0.164,0.267,0.254,0.259,0.133,0.087,�k,7.9,�L
2019/07/08,04:20,0.180,0.164,0.268,0.251,0.261,0.134,0.087,�k,7.6,�L
2019/07/08,04:30,0.179,0.164,0.268,0.253,0.259,0.134,0.089,�k,7.9,�L
2019/07/08,04:40,0.180,0.164,0.267,0.252,0.262,0.135,0.087,�k,8.1,�L
2019/07/08,04:50,0.180,0.164,0.268,0.251,0.259,0.134,0.087,�k,8.7,�L
2019/07/08,05:00,0.180,0.164,0.268,0.254,0.261,0.135,0.087,�k,9.0,�L
2019/07/08,05:10,0.178,0.164,0.268,0.251,0.260,0.134,0.087,�k,8.4,�L
2019/07/08,05:20,0.179,0.163,0.269,0.253,0.262,0.133,0.087,�k,7.6,�L
2019/07/08,05:30,0.180,0.164,0.269,0.253,0.260,0.133,0.086,�k�k��,7.9,�L
2019/07/08,05:40,0.178,0.163,0.269,0.254,0.262,0.135,0.086,�k�k��,7.0,�L
2019/07/08,05:50,0.180,0.163,0.270,0.252,0.259,0.134,0.086,�k�k��,7.7,�L
2019/07/08,06:00,0.179,0.163,0.270,0.253,0.261,0.134,0.086,�k�k��,8.1,�L
2019/07/08,06:10,0.179,0.162,0.268,0.252,0.261,0.134,0.085,�k�k��,8.5,�L
2019/07/08,06:20,0.178,0.163,0.270,0.254,0.260,0.134,0.087,�k�k��,8.6,�L
2019/07/08,06:30,0.180,0.162,0.268,0.253,0.260,0.135,0.086,�k�k��,8.5,�L
2019/07/08,06:40,0.178,0.163,0.269,0.252,0.259,0.133,0.086,�k�k��,7.9,�L
2019/07/08,06:50,0.180,0.163,0.267,0.253,0.261,0.134,0.086,�k�k��,7.0,�L
2019/07/08,07:00,0.180,0.163,0.267,0.252,0.258,0.134,0.085,�k�k��,7.0,�L
2019/07/08,07:10,0.179,0.162,0.269,0.252,0.259,0.133,0.086,�k��,8.2,�L
2019/07/08,07:20,0.178,0.162,0.268,0.251,0.258,0.132,0.086,�k�k��,8.5,�L
2019/07/08,07:30,0.178,0.163,0.268,0.253,0.259,0.133,0.085,�k�k��,8.1,��
2019/07/08,07:40,0.179,0.162,0.267,0.251,0.258,0.132,0.085,�k�k��,7.9,��
2019/07/08,07:50,0.178,0.163,0.269,0.253,0.260,0.133,0.084,�k�k��,5.9,��
2019/07/08,08:00,0.179,0.161,0.266,0.252,0.258,0.132,0.084,�k�k��,5.4,��
2019/07/08,08:10,0.179,0.162,0.270,0.253,0.259,0.132,0.084,�k�k��,6.5,��
2019/07/08,08:20,0.179,0.161,0.267,0.251,0.258,0.132,0.084,�k�k��,5.7,��
2019/07/08,08:30,0.178,0.161,0.270,0.252,0.259,0.133,0.085,�k,6.6,�L
2019/07/08,08:40,0.180,0.162,0.266,0.252,0.257,0.132,0.084,�k,7.0,�L
2019/07/08,08:50,0.178,0.162,0.269,0.253,0.259,0.133,0.085,�k,6.8,��
2019/07/08,09:00,0.179,0.162,0.267,0.252,0.257,0.132,0.084,�k,6.0,�L
2019/07/08,09:10,0.179,0.162,0.270,0.254,0.260,0.133,0.084,�k�k��,6.2,��
2019/07/08,09:20,0.179,0.162,0.268,0.251,0.257,0.132,0.084,�k�k��,6.3,��
2019/07/08,09:30,0.179,0.161,0.270,0.253,0.260,0.133,0.084,�k�k��,7.0,��
2019/07/08,09:40,0.180,0.162,0.268,0.253,0.258,0.133,0.084,�k�k��,7.7,��
2019/07/08,09:50,0.178,0.162,0.269,0.255,0.260,0.133,0.085,�k�k��,6.4,��
2019/07/08,10:00,0.178,0.163,0.268,0.253,0.258,0.133,0.084,�k�k��,7.0,��
2019/07/08,10:10,0.178,0.162,0.270,0.253,0.260,0.133,0.085,�k�k��,6.2,��
2019/07/08,10:20,0.181,0.163,0.267,0.251,0.259,0.133,0.084,�k�k��,5.1,��
2019/07/08,10:30,0.179,0.162,0.269,0.254,0.257,0.133,0.085,�k�k��,4.4,��
2019/07/08,10:40,0.180,0.164,0.268,0.253,0.261,0.133,0.084,�k,6.3,��
2019/07/08,10:50,0.178,0.162,0.270,0.253,0.258,0.133,0.085,�k�k��,5.9,��
2019/07/08,11:00,0.179,0.163,0.269,0.254,0.260,0.132,0.085,�k,6.3,��
2019/07/08,11:10,0.179,0.163,0.269,0.253,0.259,0.134,0.084,�k,5.9,��
2019/07/08,11:20,0.178,0.162,0.268,0.255,0.259,0.133,0.086,�k�k��,5.2,��
2019/07/08,11:30,0.180,0.162,0.269,0.254,0.261,0.133,0.085,�k�k��,6.2,��
2019/07/08,11:40,0.178,0.163,0.269,0.254,0.257,0.134,0.084,�k,5.5,��
2019/07/08,11:50,0.180,0.162,0.268,0.253,0.261,0.133,0.085,�k,5.5,��
2019/07/08,12:00,0.179,0.162,0.270,0.253,0.259,0.134,0.084,�k,7.1,��
2019/07/08,12:10,0.179,0.164,0.267,0.254,0.256,0.133,0.084,�k,7.1,��
2019/07/08,12:20,0.180,0.163,0.271,0.252,0.260,0.133,0.085,�k,7.0,��
2019/07/08,12:30,0.178,0.163,0.269,0.255,0.259,0.134,0.085,�k,7.0,��
2019/07/08,12:40,0.181,0.163,0.270,0.254,0.258,0.134,0.084,�k,7.4,��
2019/07/08,12:50,0.180,0.162,0.271,0.254,0.262,0.133,0.085,�k,7.0,��
2019/07/08,13:00,0.180,0.164,0.269,0.256,0.260,0.133,0.085,�k,6.7,��
2019/07/08,13:10,0.180,0.162,0.272,0.253,0.257,0.134,0.084,�k,6.8,��
2019/07/08,13:20,0.179,0.163,0.270,0.254,0.261,0.133,0.085,�k,7.1,��
2019/07/08,13:30,0.181,0.163,0.270,0.256,0.260,0.134,0.085,�k,6.3,��
2019/07/08,13:40,0.180,0.162,0.272,0.254,0.258,0.134,0.084,�k,7.0,��
2019/07/08,13:50,0.180,0.164,0.269,0.257,0.263,0.134,0.085,�k,6.3,��
2019/07/08,14:00,0.180,0.163,0.272,0.254,0.260,0.135,0.085,�k,6.3,��
2019/07/08,14:10,0.179,0.163,0.271,0.254,0.257,0.134,0.085,�k,7.9,��
2019/07/08,14:20,0.181,0.164,0.270,0.257,0.262,0.134,0.085,�k,6.4,��
2019/07/08,14:30,0.180,0.162,0.272,0.255,0.261,0.134,0.084,�k,6.5,��
2019/07/08,14:40,0.181,0.164,0.269,0.255,0.258,0.135,0.085,�k,7.6,��
2019/07/08,14:50,0.179,0.163,0.272,0.257,0.262,0.134,0.086,�k,7.4,��
2019/07/08,15:00,0.180,0.163,0.273,0.254,0.261,0.135,0.085,�k,8.2,��
2019/07/08,15:10,0.182,0.164,0.269,0.257,0.258,0.135,0.085,�k,8.1,��
2019/07/08,15:20,0.181,0.162,0.273,0.256,0.262,0.134,0.086,�k,6.7,��
2019/07/08,15:30,0.182,0.165,0.270,0.254,0.261,0.134,0.086,�k,5.7,��
2019/07/08,15:40,0.180,0.163,0.272,0.258,0.261,0.134,0.085,�k,6.6,��
2019/07/08,15:50,0.182,0.163,0.270,0.255,0.263,0.134,0.085,�k,7.4,��
2019/07/08,16:00,0.181,0.164,0.271,0.257,0.258,0.134,0.085,�k,7.1,��
2019/07/08,16:10,0.181,0.163,0.271,0.256,0.262,0.134,0.085,�k,6.5,��
2019/07/08,16:20,0.182,0.163,0.270,0.254,0.261,0.133,0.085,�k,6.4,��
2019/07/08,16:30,0.180,0.164,0.273,0.257,0.261,0.135,0.086,�k,6.5,��
2019/07/08,16:40,0.181,0.163,0.271,0.255,0.262,0.135,0.085,�k,6.2,��
2019/07/08,16:50,0.180,0.163,0.274,0.258,0.260,0.135,0.085,�k,5.9,��
2019/07/08,17:00,0.182,0.165,0.271,0.256,0.264,0.134,0.086,�k,5.9,��
2019/07/08,17:10,0.180,0.163,0.273,0.256,0.262,0.135,0.085,�k�k��,3.9,��
2019/07/08,17:20,0.183,0.165,0.272,0.257,0.261,0.136,0.085,�k,5.1,��
2019/07/08,17:30,0.182,0.165,0.272,0.256,0.263,0.134,0.085,�k�k��,4.0,��
2019/07/08,17:40,0.182,0.165,0.272,0.257,0.260,0.135,0.085,�k,4.3,��
2019/07/08,17:50,0.181,0.164,0.273,0.256,0.263,0.135,0.085,�k�k��,4.6,��
2019/07/08,18:00,0.182,0.165,0.272,0.258,0.260,0.134,0.085,�k,4.2,��
2019/07/08,18:10,0.181,0.164,0.272,0.256,0.264,0.135,0.086,�k,5.6,��
2019/07/08,18:20,0.181,0.164,0.274,0.259,0.261,0.135,0.085,�k,5.2,��
2019/07/08,18:30,0.182,0.164,0.271,0.256,0.262,0.136,0.086,�k,4.5,��
2019/07/08,18:40,0.181,0.164,0.272,0.259,0.262,0.135,0.085,�k�k��,4.8,��
2019/07/08,18:50,0.182,0.164,0.271,0.254,0.262,0.136,0.085,�k,4.8,��
2019/07/08,19:00,0.182,0.164,0.274,0.257,0.261,0.135,0.085,�k,5.4,��
2019/07/08,19:10,0.183,0.163,0.272,0.258,0.261,0.134,0.085,�k,5.4,��
2019/07/08,19:20,0.181,0.164,0.274,0.257,0.262,0.135,0.085,�k,4.6,��
2019/07/08,19:30,0.183,0.164,0.271,0.257,0.261,0.135,0.085,�k,4.5,��
2019/07/08,19:40,0.181,0.165,0.273,0.257,0.263,0.136,0.085,�k�k��,4.1,��
2019/07/08,19:50,0.182,0.164,0.271,0.257,0.260,0.135,0.086,�k�k��,4.4,��
2019/07/08,20:00,0.182,0.165,0.273,0.257,0.263,0.135,0.085,�k�k��,4.0,��
2019/07/08,20:10,0.182,0.165,0.272,0.259,0.261,0.134,0.085,�k�k��,4.4,��
2019/07/08,20:20,0.182,0.165,0.274,0.257,0.263,0.135,0.085,�k�k��,4.4,��
2019/07/08,20:30,0.183,0.164,0.271,0.258,0.260,0.135,0.086,�k��,4.8,��
2019/07/08,20:40,0.181,0.164,0.274,0.257,0.263,0.135,0.085,�k�k��,5.5,�L
2019/07/08,20:50,0.182,0.163,0.272,0.258,0.260,0.136,0.085,�k�k��,5.7,��
2019/07/08,21:00,0.181,0.165,0.273,0.255,0.263,0.135,0.085,�k�k��,5.6,�L
2019/07/08,21:10,0.181,0.164,0.272,0.259,0.262,0.136,0.086,�k�k��,6.0,��
2019/07/08,21:20,0.181,0.164,0.274,0.257,0.262,0.135,0.086,�k�k��,6.3,��
2019/07/08,21:30,0.182,0.164,0.272,0.259,0.262,0.136,0.085,�k�k��,6.6,��
2019/07/08,21:40,0.181,0.164,0.274,0.257,0.263,0.135,0.085,�k�k��,6.0,��
2019/07/08,21:50,0.181,0.163,0.271,0.258,0.262,0.136,0.086,�k�k��,6.2,��
2019/07/08,22:00,0.182,0.164,0.275,0.255,0.261,0.135,0.086,�k�k��,5.6,�L
2019/07/08,22:10,0.181,0.165,0.273,0.259,0.262,0.136,0.086,�k�k��,5.3,�L
2019/07/08,22:20,0.183,0.164,0.274,0.257,0.259,0.136,0.086,�k�k��,6.2,�L
2019/07/08,22:30,0.181,0.164,0.272,0.258,0.262,0.135,0.085,�k�k��,6.3,��
2019/07/08,22:40,0.182,0.165,0.274,0.257,0.261,0.136,0.086,�k��,6.3,��
2019/07/08,22:50,0.182,0.164,0.271,0.259,0.263,0.135,0.085,�k�k��,6.4,�L
2019/07/08,23:00,0.183,0.164,0.275,0.256,0.260,0.136,0.084,�k�k��,6.3,��
2019/07/08,23:10,0.181,0.165,0.272,0.258,0.262,0.135,0.086,�k�k��,6.2,�L
2019/07/08,23:20,0.182,0.163,0.275,0.256,0.261,0.137,0.086,�k�k��,6.2,�L
2019/07/08,23:30,0.181,0.165,0.272,0.259,0.263,0.135,0.086,�k�k��,5.1,��
2019/07/08,23:40,0.183,0.164,0.274,0.257,0.261,0.136,0.086,�k�k��,5.6,��
2019/07/08,23:50,0.181,0.165,0.273,0.259,0.262,0.135,0.085,�k�k��,5.4,��
